Location: Endfield
(51.6667°N, 0.0667°W)
Time: 21:21:06
(UTC+00:00)

Cosmos 1553 Rocket - Pass Details

Date: 19 May 2024
Orbit: 940 x 1008 km, 82.9° (Epoch: 16 June)

Event Time Altitude Azimuth Distance (km) Brightness Sun altitude
Rises 23:27:53 0° 349° (N) 3,626 8.7 -18.0°
Reaches altitude 10° 23:30:23 10° 350° (N) 2,673 7.6 -18.1°
Maximum altitude 23:36:29 89° 263° (W) 949 3.9 -18.2°
Enters shadow 23:39:40 30° 173° (S) 1,614 4.6 -18.2°
